Location: Paris
(48.6709°N, 2.3750°E)
Time: 15:33:31
(UTC+02:00)

QB50P2 - Pass Details

Date: 28 June 2022
Orbit: 590 x 605 km, 97.9° (Epoch: 18 August)

Event Time Altitude Azimuth Distance (km) Brightness Sun altitude
Rises 03:08:08 0° 16° (NNE) 2,858 ? -16.1°
Reaches altitude 10° 03:10:20 10° 20° (NNE) 1,953 ? -16.0°
Maximum altitude 03:14:33 63° 102° (ESE) 675 ? -15.8°
Enters shadow 03:16:49 26° 176° (S) 1,199 ? -15.7°
